Simultaneous Nadir Overpasses (SNOs) Predictions

Prediction of SNOs between GOES-16 and LANDSAT-8 Satellite Orbit:

Table of predicted SNOs for the next 14.0 days since TLE Epoch: 9/7/2019
Index Date Time (GOES-16) GOES-16 Lat,Lon LANDSAT-8 Lat,Lon Distance(km) Time Diff (sec)
1 09/07/2019 14:57:12 -0.00, -75.20 -0.92, -70.95 483.76 80
2 09/08/2019 03:18:36 0.00, -75.19 -0.20, -76.13 107.29 80
3 09/10/2019 03:03:45 0.00, -75.20 0.42, -73.18 229.77 80
4 09/10/2019 15:25:01 0.00, -75.21 0.66, -78.34 355.37 80
5 09/12/2019 15:12:50 0.00, -75.23 0.03, -75.38 17.38 80
6 09/14/2019 15:03:19 0.00, -75.25 -0.59, -72.42 321.35 80
7 09/15/2019 03:24:42 -0.00, -75.25 -0.53, -77.61 268.98 80
8 09/17/2019 03:09:53 -0.00, -75.28 0.16, -74.66 70.51 80
9 09/19/2019 02:57:42 -0.00, -75.31 0.78, -71.71 410.15 80
10 09/19/2019 15:18:57 0.00, -75.33 0.30, -76.87 174.61 80




NCC Satellite Simultaneous Nadir Overpasses (SNOs) Prediction Service
